Kimball, NE

8:18 PM MDT on June 26, 2017 (GMT -0600)
Kimball Municipal-Arraj

Weather History for KIBM - July, 2013

Change the Weather History Date:

Tuesday, July 9, 2013

  Actual Average (KSNY) Record (KSNY)
Temperature  
Mean Temperature 78 °F -  
Max Temperature 95 °F 90 °F 108 °F (1989)
Min Temperature 61 °F 56 °F 41 °F (1959)
Cooling Degree Days 13    
Growing Degree Days 28 (Base 50)    
Moisture  
Dew Point 46 °F    
Average Humidity 41    
Maximum Humidity 76    
Minimum Humidity 11    
Precipitation  
Precipitation 0.00 in - - ()
Sea Level Pressure  
Sea Level Pressure 30.15 in    
Wind  
Wind Speed 7 mph (NNW)    
Max Wind Speed 25 mph    
Max Gust Speed 31 mph    
Visibility 10 miles    
Events Rain , Thunderstorm    
Averages and records for this station are not official NWS values.
T = Trace of Precipitation, MM = Missing Value Source: NWS Daily Summary

Daily Weather History Graph

Daily Weather History Graph

Search for Another Location

Airport or City:

Trip Planner

Search our weather history database for the weather conditions in past years. The results will help you decide how hot, cold, wet, or windy it might be!

Date:

Astronomy

Jul. 09, 2013 Rise Set
Actual Time 6:30 AM CDT 9:28 PM CDT
Civil Twilight 5:57 AM CDT 10:02 PM CDT
Nautical Twilight 5:15 AM CDT 10:43 PM CDT
Astronomical Twilight 4:26 AM CDT 11:32 PM CDT
Moon 7:58 AM CDT (7/9) 10:06 PM CDT (7/9)
Length of Visible Light 16h 04m
Length of Day
14h 58m
New Moon, 2% of the Moon is Illuminated
Jul 9
New Moon
Jul 15
First Quarter
Jul 22
Full
Jul 29
Last Quarter
Aug 6
New

Hourly Weather History & Observations

Time (CDT) Temp. Dew Point Humidity Pressure Visibility Wind Dir Wind Speed Gust Speed Precip Events Conditions
12:15 AM 66.7 °F 53.6 °F 63% 30.11 in 10.0 mi Calm Calm - N/A   Clear
12:35 AM 64.2 °F 52.5 °F 66% 30.11 in 10.0 mi Calm Calm - N/A   Clear
12:55 AM 64.6 °F 52.7 °F 65% 30.11 in 10.0 mi Calm Calm - N/A   Clear
1:15 AM 63.5 °F 52.7 °F 68% 30.11 in 10.0 mi Calm Calm - N/A   Clear
1:35 AM 62.2 °F 52.7 °F 71% 30.11 in 10.0 mi WSW 4.6 mph - N/A   Clear
1:55 AM 62.1 °F 52.7 °F 71% 30.11 in 10.0 mi West 3.5 mph - N/A   Clear
2:15 AM 62.6 °F 53.4 °F 72% 30.11 in 10.0 mi WSW 8.1 mph - N/A   Clear
2:35 AM 63.3 °F 54.5 °F 73% 30.11 in 10.0 mi WSW 9.2 mph - N/A   Clear
3:15 AM 62.2 °F 54.5 °F 76% 30.11 in 10.0 mi WSW 8.1 mph - N/A   Clear
3:35 AM 62.6 °F 55.0 °F 76% 30.11 in 10.0 mi WSW 8.1 mph - N/A   Clear
3:55 AM 63.0 °F 55.4 °F 76% 30.11 in 10.0 mi SW 5.8 mph - N/A   Clear
4:15 AM 63.5 °F 54.5 °F 72% 30.10 in 10.0 mi WSW 10.4 mph - N/A   Clear
4:35 AM 63.5 °F 54.0 °F 71% 30.11 in 10.0 mi SW 6.9 mph - N/A   Clear
4:55 AM 65.3 °F 53.1 °F 65% 30.11 in 10.0 mi WSW 8.1 mph - N/A   Clear
5:15 AM 63.0 °F 53.1 °F 70% 30.11 in 10.0 mi WSW 5.8 mph - N/A   Clear
5:35 AM 61.3 °F 53.1 °F 74% 30.11 in 10.0 mi West 6.9 mph - N/A   Clear
5:55 AM 61.0 °F 52.7 °F 74% 30.11 in 10.0 mi WSW 8.1 mph - N/A   Clear
6:15 AM 61.7 °F 51.8 °F 70% 30.12 in 10.0 mi NW 9.2 mph - N/A   Clear
6:35 AM 61.7 °F 50.9 °F 68% 30.12 in 10.0 mi West 9.2 mph - N/A   Clear
6:55 AM 61.7 °F 50.2 °F 66% 30.12 in 10.0 mi West 8.1 mph - N/A   Clear
7:15 AM 62.8 °F 49.8 °F 63% 30.12 in 10.0 mi West 8.1 mph - N/A   Clear
7:35 AM 65.5 °F 48.9 °F 55% 30.13 in 10.0 mi West 10.4 mph - N/A   Clear
7:55 AM 68.9 °F 47.5 °F 46% 30.13 in 10.0 mi West 11.5 mph - N/A   Clear
8:15 AM 72.1 °F 45.9 °F 39% 30.14 in 10.0 mi WNW 9.2 mph - N/A   Clear
8:35 AM 74.3 °F 44.4 °F 34% 30.15 in 10.0 mi West 12.7 mph - N/A   Clear
8:55 AM 75.7 °F 44.6 °F 33% 30.15 in 10.0 mi WNW 10.4 mph - N/A   Clear
9:15 AM 78.4 °F 44.8 °F 30% 30.15 in 10.0 mi WNW 11.5 mph - N/A   Clear
9:35 AM 80.1 °F 46.0 °F 30% 30.17 in 10.0 mi NW 8.1 mph - N/A   Clear
9:55 AM 82.0 °F 43.9 °F 26% 30.17 in 10.0 mi NNW 8.1 mph - N/A   Clear
10:15 AM 83.8 °F 44.4 °F 25% 30.17 in 10.0 mi NNW 10.4 mph - N/A   Clear
10:35 AM 84.7 °F 44.2 °F 24% 30.17 in 10.0 mi NNW 13.8 mph - N/A   Clear
10:55 AM 84.9 °F 43.9 °F 24% 30.18 in 10.0 mi NNW 11.5 mph - N/A   Clear
11:15 AM 86.9 °F 43.9 °F 22% 30.18 in 10.0 mi North 12.7 mph 17.3 mph N/A   Clear
11:35 AM 86.9 °F 44.8 °F 23% 30.19 in 10.0 mi NNW 12.7 mph - N/A   Clear
11:55 AM 87.4 °F 45.1 °F 23% 30.19 in 10.0 mi North 11.5 mph - N/A   Clear
12:15 PM 88.3 °F 43.5 °F 21% 30.19 in 10.0 mi NNW 13.8 mph - N/A   Clear
12:23 PM 89.6 °F 42.8 °F 20% 30.19 in 10.0 mi North 10.4 mph - N/A   Clear
12:35 PM 89.6 °F 43.3 °F 20% 30.19 in 10.0 mi NNW 11.5 mph - N/A   Clear
12:43 PM 89.6 °F 42.8 °F 20% 30.19 in 10.0 mi NNW 6.9 mph 16.1 mph N/A   Clear
12:55 PM 89.2 °F 43.3 °F 20% 30.19 in 10.0 mi North 11.5 mph 18.4 mph N/A   Clear
1:03 PM 89.6 °F 42.8 °F 20% 30.19 in 10.0 mi North 12.7 mph - N/A   Clear
1:15 PM 90.0 °F 41.5 °F 18% 30.18 in 10.0 mi North 11.5 mph - N/A   Clear
1:23 PM 91.4 °F 39.2 °F 16% 30.18 in 10.0 mi NNW 9.2 mph 16.1 mph N/A   Clear
1:35 PM 91.4 °F 41.0 °F 17% 30.18 in 10.0 mi North 11.5 mph - N/A   Clear
1:55 PM 91.8 °F 37.4 °F 15% 30.18 in 10.0 mi NW 6.9 mph - N/A   Clear
2:15 PM 93.0 °F 35.4 °F 13% 30.17 in 10.0 mi North 5.8 mph 10.4 mph N/A   Clear
2:35 PM 93.4 °F 35.2 °F 13% 30.17 in 10.0 mi North 9.2 mph 17.3 mph N/A   Clear
2:55 PM 94.5 °F 35.1 °F 12% 30.15 in 10.0 mi North 13.8 mph 20.7 mph N/A   Clear
3:15 PM 94.8 °F 32.7 °F 11% 30.15 in 10.0 mi North 13.8 mph 20.7 mph N/A   Clear
3:35 PM 95.4 °F 33.6 °F 11% 30.15 in 10.0 mi North 15.0 mph 19.6 mph N/A   Clear
3:55 PM 95.0 °F 34.0 °F 12% 30.14 in 10.0 mi North 15.0 mph 21.9 mph N/A   Clear
4:15 PM 95.2 °F 34.3 °F 12% 30.14 in 10.0 mi NNW 10.4 mph 21.9 mph N/A   Clear
4:35 PM 95.7 °F 36.0 °F 12% 30.14 in 10.0 mi NNE 12.7 mph 16.1 mph N/A   Clear
4:55 PM 94.6 °F 35.8 °F 13% 30.13 in 10.0 mi North 6.9 mph 10.4 mph N/A   Clear
5:15 PM 95.5 °F 35.8 °F 12% 30.13 in 10.0 mi NE 11.5 mph 16.1 mph N/A   Clear
5:35 PM 95.0 °F 34.7 °F 12% 30.13 in 10.0 mi NNE 6.9 mph 16.1 mph N/A   Clear
5:55 PM 95.2 °F 35.6 °F 12% 30.13 in 10.0 mi ENE 12.7 mph 18.4 mph N/A   Clear
6:15 PM 92.3 °F 36.3 °F 14% 30.13 in 10.0 mi East 6.9 mph - N/A   Clear
6:35 PM 93.4 °F 37.2 °F 14% 30.13 in 10.0 mi ENE 10.4 mph - N/A   Clear
6:55 PM 90.7 °F 37.6 °F 15% 30.14 in 10.0 mi ENE 6.9 mph - N/A   Scattered Clouds
7:15 PM 90.9 °F 37.6 °F 15% 30.14 in 10.0 mi ENE 6.9 mph - N/A   Scattered Clouds
7:35 PM 90.0 °F 38.1 °F 16% 30.14 in 10.0 mi ENE 6.9 mph - N/A   Clear
7:55 PM 88.5 °F 40.1 °F 18% 30.14 in 10.0 mi ENE 4.6 mph - N/A   Scattered Clouds
8:15 PM 87.8 °F 44.1 °F 22% 30.16 in 10.0 mi NE 5.8 mph - N/A   Scattered Clouds
8:35 PM 86.2 °F 49.1 °F 28% 30.18 in 10.0 mi North 25.3 mph 31.1 mph N/A Thunderstorm Scattered Clouds
8:55 PM 76.3 °F 51.4 °F 42% 30.20 in 10.0 mi NNE 20.7 mph 24.2 mph N/A Thunderstorm Scattered Clouds
9:15 PM 73.6 °F 56.5 °F 55% 30.23 in 7.0 mi SSE 19.6 mph - N/A Rain Light Rain
9:35 PM 68.2 °F 59.2 °F 73% 30.23 in 10.0 mi ESE 12.7 mph - N/A Rain Light Rain
9:55 PM 67.8 °F 59.4 °F 74% 30.22 in 10.0 mi ESE 11.5 mph - N/A   Clear
10:15 PM 66.7 °F 57.9 °F 73% 30.22 in 10.0 mi ESE 17.3 mph - N/A   Clear
10:35 PM 68.2 °F 56.5 °F 66% 30.22 in 10.0 mi ESE 13.8 mph - N/A   Clear
10:55 PM 67.8 °F 57.2 °F 69% 30.22 in 10.0 mi ESE 9.2 mph - N/A   Clear
11:15 PM 67.3 °F 56.3 °F 68% 30.21 in 10.0 mi ESE 8.1 mph - N/A   Clear
11:35 PM 66.2 °F 57.0 °F 72% 30.21 in 10.0 mi ESE 5.8 mph - N/A   Clear
11:55 PM 64.8 °F 55.9 °F 73% 30.22 in 10.0 mi ENE 4.6 mph - N/A   Clear